Weather reports worldwide

Advertisment
F3, Netherlands (6239): temperature & dewpoint: 22.10.2020 15:00:00 - 28.10.2020 15:00:00 (CET)F3, Netherlands (6239): reduced air pressure: 22.10.2020 15:00:00 - 28.10.2020 15:00:00 (CET)F3, Netherlands (6239): visibility: 22.10.2020 15:00:00 - 28.10.2020 15:00:00 (CET)
Date & Time tt [°C] td [°C] ppp [hPa] vv [km]
28.10.2020 15:00:00 11,2 5,9 998,2 22
28.10.2020 14:00:00 11,2 5,8 997,9 10
28.10.2020 13:00:00 11,3 5,9 997,9 30
28.10.2020 12:00:00 11,3 6,6 997,8 10
28.10.2020 11:00:00 11,6 6,5 997,7 10
28.10.2020 10:00:00 11,5 6,6 997,5 17
28.10.2020 09:00:00 11,6 6,6 997,2 10
28.10.2020 08:00:00 11,5 6,3 996,8 10
28.10.2020 07:00:00 11,6 6,1 996,1 18
28.10.2020 06:00:00 11,6 5,9 995,9 21
28.10.2020 05:00:00 11,6 6,5 995,3 19
28.10.2020 04:00:00 11,7 6,3 995,0 10
28.10.2020 03:00:00 11,9 5,6 994,7 10
28.10.2020 02:00:00 12,0 6,0 993,8 10
28.10.2020 01:00:00 12,0 6,3 993,0 10
28.10.2020 00:00:00 12,3 7,2 992,0 10
27.10.2020 23:00:00 12,7 8,9 990,7 10
27.10.2020 22:00:00 12,5 11,5 990,0 5
27.10.2020 21:00:00 11,8 10,5 991,0 5
27.10.2020 20:00:00 11,7 10,0 992,4 8
27.10.2020 19:00:00 10,8 9,5 993,7 5
27.10.2020 18:00:00 11,4 7,6 994,7 10
27.10.2020 17:00:00 12,1 6,9 994,9 10
27.10.2020 16:00:00 11,8 6,3 995,5 10
27.10.2020 15:00:00 11,5 5,1 996,0 44
27.10.2020 14:00:00 11,7 6,8 996,4 10
27.10.2020 13:00:00 11,5 6,1 996,6 10
27.10.2020 12:00:00 11,4 5,4 996,8 10
27.10.2020 11:00:00 11,4 6,3 996,6 10
27.10.2020 10:00:00 11,5 6,6 996,0 10
27.10.2020 09:00:00 11,5 7,2 995,4 10
27.10.2020 08:00:00 10,3 7,1 995,2 10
27.10.2020 07:00:00 11,1 7,1 994,6 10
27.10.2020 06:00:00 11,0 6,5 993,9 10
27.10.2020 05:00:00 11,3 7,5 993,6 30
27.10.2020 04:00:00 11,1 7,0 993,0 5
27.10.2020 03:00:00 10,6 6,8 993,4 10
27.10.2020 02:00:00 10,5 7,7 993,8 10
27.10.2020 01:00:00 11,9 6,8 993,5 10
27.10.2020 00:00:00 11,7 7,6 993,7 10
26.10.2020 23:00:00 11,9 7,3 993,7 10
26.10.2020 22:00:00 12,1 7,3 993,6 10
26.10.2020 21:00:00 12,0 7,9 993,3 10
26.10.2020 20:00:00 11,9 8,1 993,1 10
26.10.2020 19:00:00 11,3 7,5 993,3 26
26.10.2020 18:00:00 12,1 6,8 993,3 10
26.10.2020 17:00:00 12,4 6,9 993,4 10
26.10.2020 16:00:00 12,6 6,5 993,4 10
26.10.2020 15:00:00 12,6 6,7 993,7 33
26.10.2020 14:00:00 12,2 5,3 994,0 10
26.10.2020 13:00:00 12,2 6,4 994,0 10
26.10.2020 12:00:00 11,7 7,4 994,4 10
26.10.2020 11:00:00 11,6 7,5 994,4 10
26.10.2020 10:00:00 12,3 6,2 994,8 10
26.10.2020 09:00:00 12,1 6,2 994,8 10
26.10.2020 08:00:00 11,9 5,7 994,3 10
26.10.2020 07:00:00 12,1 6,7 994,3 10
26.10.2020 06:00:00 12,2 7,0 994,0 10
26.10.2020 05:00:00 12,2 7,0 994,0 10
26.10.2020 04:00:00 12,3 7,4 994,1 10
26.10.2020 03:00:00 12,3 7,4 994,6 10
26.10.2020 02:00:00 12,3 7,0 994,8 10
26.10.2020 01:00:00 12,3 7,0 995,1 10
26.10.2020 00:00:00 12,3 7,1 995,4 10
25.10.2020 23:00:00 12,4 8,0 995,3 10
25.10.2020 22:00:00 12,6 7,1 995,6 10
25.10.2020 21:00:00 12,7 7,7 995,3 10
25.10.2020 20:00:00 12,5 7,0 995,4 10
25.10.2020 19:00:00 12,7 7,4 995,6 10
25.10.2020 18:00:00 12,3 7,3 995,7 10
25.10.2020 17:00:00 12,3 7,4 995,5 10
25.10.2020 16:00:00 12,9 6,3 995,4 10
25.10.2020 15:00:00 12,8 5,7 995,4 10
25.10.2020 14:00:00 12,7 6,6 995,2 10
25.10.2020 13:00:00 12,5 6,6 995,6 10
25.10.2020 12:00:00 12,6 7,6 995,5 10
25.10.2020 11:00:00 12,5 7,3 995,6 10
25.10.2020 10:00:00 12,5 7,3 995,1 10
25.10.2020 09:00:00 12,5 8,1 994,5 10
25.10.2020 08:00:00 12,5 8,2 994,2 47
25.10.2020 07:00:00 12,1 8,5 993,4 10
25.10.2020 06:00:00 11,9 9,9 993,2 9
25.10.2020 05:00:00 13,0 9,7 992,6 10
25.10.2020 04:00:00 13,0 10,5 992,6 10
25.10.2020 03:00:00 12,6 10,7 992,0 10
25.10.2020 02:00:00 12,6 11,4 992,2 4,7
25.10.2020 01:00:00 - - - -
25.10.2020 00:00:00 15,5 12,5 992,0 10
24.10.2020 23:00:00 15,4 12,4 993,0 10
24.10.2020 22:00:00 15,4 12,4 994,5 10
24.10.2020 21:00:00 15,1 12,3 995,7 10
24.10.2020 20:00:00 14,8 12,1 996,7 10
24.10.2020 19:00:00 14,6 11,9 997,4 10
24.10.2020 18:00:00 14,2 12,0 998,4 9
24.10.2020 17:00:00 14,1 11,4 999,4 10
24.10.2020 16:00:00 14,3 11,0 1000,2 10
24.10.2020 15:00:00 14,0 10,0 1001,1 10
24.10.2020 14:00:00 13,5 8,8 1001,7 10
24.10.2020 13:00:00 13,7 9,3 1002,5 10
24.10.2020 12:00:00 13,3 7,8 1003,2 10
24.10.2020 11:00:00 12,6 6,3 1003,9 10
24.10.2020 10:00:00 12,1 5,6 1004,3 10
24.10.2020 09:00:00 11,8 5,3 1004,5 10
24.10.2020 08:00:00 11,9 5,6 1004,8 10
24.10.2020 07:00:00 11,6 6,0 1004,9 10
24.10.2020 06:00:00 11,4 4,9 1005,0 10
24.10.2020 05:00:00 11,6 5,0 1005,2 10
24.10.2020 04:00:00 11,7 5,4 1005,2 10
24.10.2020 03:00:00 11,9 5,6 1005,4 10
24.10.2020 02:00:00 12,0 5,8 1005,0 47
24.10.2020 01:00:00 12,1 7,0 1004,5 10
24.10.2020 00:00:00 12,4 8,0 1004,4 10
23.10.2020 23:00:00 12,7 9,3 1004,5 10
23.10.2020 22:00:00 13,1 9,0 1004,1 10
23.10.2020 21:00:00 12,7 9,4 1003,5 10
23.10.2020 20:00:00 12,7 9,2 1003,6 10
23.10.2020 19:00:00 12,9 8,5 1003,9 10
23.10.2020 18:00:00 12,8 9,9 1003,9 39
23.10.2020 17:00:00 13,1 9,8 1003,3 10
23.10.2020 16:00:00 13,4 10,1 1003,2 10
23.10.2020 15:00:00 13,6 10,9 1003,1 10
23.10.2020 14:00:00 14,0 11,4 1003,8 10
23.10.2020 13:00:00 13,2 10,1 1005,0 10
23.10.2020 12:00:00 12,8 8,7 1006,1 10
23.10.2020 11:00:00 12,4 7,7 1006,6 10
23.10.2020 10:00:00 12,0 7,3 1006,9 47
23.10.2020 09:00:00 11,6 4,9 1006,9 10
23.10.2020 08:00:00 11,5 4,3 1007,1 10
23.10.2020 07:00:00 11,6 4,1 1006,9 10
23.10.2020 06:00:00 11,7 4,9 1006,8 10
23.10.2020 05:00:00 11,9 6,9 1006,6 10
23.10.2020 04:00:00 12,1 8,1 1006,6 43
23.10.2020 03:00:00 12,2 8,5 1006,7 10
23.10.2020 02:00:00 12,5 9,0 1006,5 10
23.10.2020 01:00:00 12,7 8,7 1006,1 10
23.10.2020 00:00:00 12,7 9,1 1005,7 10
22.10.2020 23:00:00 12,6 9,2 1005,4 10
22.10.2020 22:00:00 12,9 9,0 1005,2 10
22.10.2020 21:00:00 13,0 8,5 1004,6 10
22.10.2020 20:00:00 13,0 8,9 1004,1 10
22.10.2020 19:00:00 12,9 8,7 1003,8 10
22.10.2020 18:00:00 13,0 9,0 1003,5 10
22.10.2020 17:00:00 12,6 8,2 1002,8 10
22.10.2020 16:00:00 12,4 7,7 1002,4 29
22.10.2020 15:00:00 12,9 8,1 1002,2 10

tt = temperature
td = dewpoint
ppp = reduced air pressure
vv = visibility

Next stations